Probability
0 0 0 0 0 1 5 12 23 31 31 23 13 7 3 1 0 0 0 0 0 0 0 0 0 0 0 0 0 0 0 0 0 0 0 0 0 0 0 0 0 0 0
0 0 0 1 1 3 9 20 31 42 44 35 20 9 3 1 0 0 0 0 0 0 0 0 0 0 0 0 0 0 0 0 0 0 0 0 0 0 0 0 0 0 0
0 0 1 3 4 7 19 34 47 57 58 49 34 18 9 4 1 0 0 0 0 0 0 0 0 0 0 0 0 0 0 0 0 0 0 0 0 0 0 0 0 0 0
0 0 2 6 10 19 33 51 63 67 63 55 43 29 18 10 3 0 0 0 0 0 0 0 0 0 0 0 0 0 0 0 0 0 0 0 0 0 0 0 0 0 0
0 1 3 12 24 37 51 65 73 69 58 47 37 26 18 9 3 0 0 0 0 0 0 0 0 0 0 0 0 0 0 0 0 0 0 0 0 0 0 0 0 0 0
1 1 5 16 31 46 56 63 64 56 40 27 20 14 8 4 1 0 0 0 0 0 0 0 0 0 0 0 0 0 0 0 0 0 0 0 0 0 0 0 0 0 0
0 1 5 13 23 32 39 41 40 33 19 10 7 5 2 1 0 0 0 0 0 0 0 0 0 0 0 0 0 0 0 0 0 0 0 0 0 0 0 0 0 0 0
0 0 2 5 9 13 16 17 18 15 8 3 1 1 0 0 0 0 0 0 0 0 0 0 0 0 0 0 0 0 0 0 0 0 0 0 0 0 0 0 0 0 0
0 0 0 1 2 3 4 5 7 6 3 1 0 0 0 0 0 0 0 0 0 0 0 0 0 0 0 0 0 0 0 0 0 0 0 0 0 0 0 0 0 0 0
0 0 0 0 0 1 1 2 2 1 1 0 0 0 0 0 0 0 0 0 0 0 0 0 0 0 0 0 0 0 0 0 0 0 0 0 0 0 0 0 0 0 0
0 0 0 0 0 0 0 0 0 0 0 0 0 0 0 0 0 0 0 0 0 0 0 0 0 0 0 0 0 0 0 0 0 0 0 0 0 0 0 0 0 0 0
0 0 0 0 0 0 0 0 0 0 0 0 0 0 0 0 0 0 0 0 0 0 0 0 0 0 0 0 0 0 0 0 0 0 0 0 0 0 0 0 0 0 0
0 0 0 0 0 0 0 0 0 0 0 0 0 0 0 0 0 0 0 0 0 0 0 0 0 0 0 0 0 0 0 0 0 0 0 0 0 0 0 0 0 0 0
0 0 0 0 0 0 0 0 0 0 0 0 0 0 0 0 0 0 0 0 0 0 0 0 0 0 0 0 0 0 0 0 0 0 0 0 0 0 0 0 0 0 0
0 0 0 0 0 0 0 0 0 0 0 0 0 0 0 0 0 0 0 0 0 0 0 0 0 0 0 0 0 0 0 0 0 0 0 0 0 0 0 0 0 0 0
0 0 0 0 0 0 0 0 0 0 0 0 0 0 0 0 0 0 0 0 0 0 0 0 0 0 0 0 0 0 0 0 0 0 0 0 0 0 0 0 0 0 0
0 0 0 0 0 0 0 0 0 0 0 0 0 0 0 0 0 0 0 0 0 0 0 0 0 0 0 0 0 0 0 0 0 0 0 0 0 0 0 0 0 0 0
0 0 0 0 0 0 0 0 0 0 0 0 0 0 0 0 0 0 0 0 0 0 0 0 0 0 0 0 0 0 0 0 0 0 0 0 0 0 0 0 0 0 0
0 0 0 0 0 0 0 0 0 0 0 0 0 0 0 0 0 0 0 0 0 0 0 0 0 0 0 0 0 0 0 0 0 0 0 0 0 0 0 0 0 0 0
0 0 0 0 0 0 0 0 0 0 0 0 0 0 0 0 0 0 0 0 0 0 0 0 0 0 0 0 0 0 0 0 0 0 0 0 0 0 0 0 0 0 0
0 0 0 0 0 0 0 0 0 0 0 0 0 0 0 0 0 0 0 0 0 0 0 0 0 0 0 0 0 0 0 0 0 0 0 0 0 0 0 0 0 0 0
0 0 0 0 0 0 0 0 0 0 0 0 0 0 0 0 0 0 0 0 0 0 0 0 0 0 0 0 0 0 0 0 0 0 0 0 0 0 0 0 0 0 0
0 0 0 0 0 0 0 0 0 0 0 0 0 0 0 0 0 0 0 0 0 0 0 0 0 0 0 0 0 0 0 0 0 0 0 0 0 0 0 0 0 0 0
0 0 0 0 0 0 0 0 0 0 0 0 0 0 0 0 0 0 0 0 0 0 0 0 0 0 0 0 0 0 0 0 0 0 0 0 0 0 0 0 0 0 0
0 0 0 0 0 0 0 0 0 0 0 0 0 0 0 0 0 0 0 0 0 0 0 0 0 0 0 0 0 0 0 0 0 0 0 0 0 0 0 0 0 0 0
0 0 0 0 0 0 0 0 0 0 0 0 0 0 0 0 0 0 0 0 0 0 0 0 0 0 0 0 0 0 0 0 0 0 0 0 0 0 0 0 0 0 0
Wind_Speed
9 9 10 12 13 13 14 14 13 11 9 7 6 5 5 4 4 4 5 6 6 7 6 5 5 4 4 4 4 3 3 2 3 3 2 2 1 1 1 1 1 0 1
12 9 9 10 14 16 16 15 14 12 11 8 6 3 3 2 2 2 4 5 6 6 6 6 5 5 4 4 5 4 3 2 3 3 3 1 2 2 2 2 2 2 1
15 13 9 8 10 13 14 12 12 10 9 7 4 3 3 2 2 3 3 4 5 5 5 6 5 5 6 6 6 6 6 4 3 2 4 4 4 2 1 2 3 3 2
15 12 9 5 6 8 8 8 9 9 8 8 5 5 4 4 4 3 2 3 4 5 5 5 6 5 5 5 6 6 5 5 4 2 1 1 3 3 2 1 2 3 4
14 13 10 5 2 2 5 7 9 8 7 6 5 3 3 3 2 2 3 3 3 4 5 5 5 5 5 6 6 6 6 5 5 4 3 2 1 1 3 2 2 2 3
14 13 11 9 8 8 8 10 11 9 5 4 2 4 5 4 3 3 3 2 1 2 3 4 4 5 4 5 6 7 8 7 6 5 4 4 3 3 3 3 2 3 3
12 12 12 10 9 9 9 9 9 7 4 2 3 4 5 5 4 3 3 2 1 1 2 3 3 3 4 4 5 5 6 7 7 7 6 5 4 3 4 3 3 2 2
11 10 9 8 7 8 8 8 6 4 3 3 4 3 4 3 2 3 3 3 2 2 2 2 2 2 3 3 4 4 5 5 7 7 7 5 5 4 4 4 4 3 2
11 10 7 6 6 6 6 5 3 2 2 3 3 3 3 3 2 2 2 2 2 1 2 2 2 2 2 2 3 3 4 5 6 6 6 5 4 5 4 4 4 5 4
12 9 6 5 4 5 4 5 2 2 2 2 2 2 2 2 2 3 3 2 2 2 2 2 2 2 2 2 2 2 2 4 4 4 5 5 4 4 5 4 4 4 5
11 8 6 5 4 5 4 3 2 1 2 3 3 4 3 3 3 2 2 2 2 2 2 2 2 2 2 2 2 2 2 3 2 3 4 5 5 5 5 4 4 4 4
10 7 6 7 6 5 3 2 2 1 2 3 4 4 4 4 3 2 1 1 2 2 2 2 2 2 2 2 2 2 2 2 2 2 3 3 3 5 5 5 6 5 5
12 10 9 8 7 5 5 4 2 1 3 4 4 3 3 3 2 1 1 1 1 2 2 3 3 3 3 3 3 2 2 2 1 2 2 2 3 4 3 5 5 5 5
12 12 11 10 8 8 7 6 4 2 3 3 4 4 3 2 1 1 1 1 1 2 2 3 3 3 3 3 3 3 2 2 1 1 1 2 3 3 3 3 4 4 4
13 12 11 9 9 9 9 7 7 5 4 4 5 4 3 3 3 2 2 1 1 2 2 2 3 3 3 4 5 4 4 3 2 1 1 1 3 4 3 2 3 3 3
12 10 10 9 9 9 8 8 8 7 6 7 6 5 4 4 4 3 3 3 2 2 2 2 3 3 4 6 9 6 4 4 3 2 2 2 2 2 4 4 4 5 4
10 10 9 8 7 7 7 8 8 8 8 8 7 6 5 5 5 5 5 4 4 3 3 3 3 4 5 7 7 9 5 4 4 4 3 2 2 3 2 3 4 4 6
9 8 7 6 6 6 7 7 7 8 8 7 7 7 6 6 5 5 5 5 3 3 3 3 3 3 4 6 6 8 6 4 4 4 4 4 3 3 3 3 2 3 4
6 5 5 4 4 5 6 6 7 6 7 7 7 6 6 5 6 6 6 4 4 4 3 3 3 3 4 5 4 5 4 3 3 3 3 4 3 4 5 4 3 3 3
6 5 4 3 4 5 5 5 6 6 6 6 5 5 6 6 6 6 5 4 4 4 4 4 4 4 4 6 4 4 3 3 2 2 2 4 4 4 4 4 4 4 3
6 5 4 3 4 4 4 5 5 5 4 4 5 6 6 6 6 6 5 6 6 6 6 6 5 5 6 7 5 2 2 3 2 2 1 1 2 2 3 4 4 4 2
6 5 4 4 4 3 3 4 4 4 3 3 5 5 6 6 6 6 7 7 7 7 7 6 6 5 6 8 7 4 2 2 2 1 0 0 1 2 1 2 2 2 1
6 5 4 5 4 2 1 2 3 2 2 3 4 4 5 5 6 7 7 6 7 6 6 5 5 5 5 7 11 9 6 4 2 1 1 3 5 5 3 3 2 2 2
6 5 4 4 4 3 1 2 2 1 2 2 2 3 3 4 5 5 5 5 6 6 5 5 5 5 5 5 5 5 4 4 4 3 5 7 7 4 3 3 3 2 1
6 4 4 5 5 4 3 2 1 1 1 1 2 2 2 2 3 4 4 5 4 5 5 4 4 5 5 6 7 4 3 2 2 3 3 3 3 3 3 2 2 2 2
6 5 5 5 5 4 4 2 2 2 2 1 1 1 1 1 1 2 2 3 4 7 8 8 6 3 5 7 8 8 8 7 6 4 3 3 3 3 3 2 2 2 2
Wind_Direction
288 274 249 228 218 210 204 202 197 189 175 171 176 182 198 197 201 203 199 197 196 194 196 204 202 192 197 199 175 151 145 128 129 104 74 22 2 246 243 204 153 130 42
320 301 272 239 220 213 206 201 197 188 183 184 174 162 153 178 198 200 200 199 194 190 197 197 195 193 192 189 179 157 149 149 157 135 123 86 332 292 224 212 213 208 201
326 315 296 255 227 216 206 196 190 179 172 159 137 113 104 102 146 194 205 202 194 193 197 197 194 192 188 193 188 176 165 164 176 173 153 160 209 245 272 227 218 206 208
335 327 318 291 242 219 195 179 163 148 142 142 155 164 173 193 202 189 191 190 191 194 200 199 196 193 191 193 193 183 174 161 170 180 172 155 159 164 214 278 231 213 217
343 345 347 344 1 93 116 117 107 105 115 128 146 169 200 211 155 146 176 188 193 198 201 201 197 197 197 198 192 184 183 178 174 171 155 137 137 158 154 209 239 238 229
347 354 2 23 45 63 82 94 97 89 91 104 136 204 205 188 165 171 178 183 189 207 208 201 200 199 197 199 197 192 190 192 185 180 170 166 175 188 178 176 198 224 242
349 356 6 20 41 57 67 77 84 86 86 129 192 207 196 185 181 174 179 173 175 205 216 199 200 200 201 197 189 191 197 194 194 197 195 189 194 175 173 169 169 197 244
348 354 6 19 33 52 61 65 70 87 121 174 191 180 174 170 164 166 164 172 183 199 194 185 189 195 192 188 184 192 197 198 204 208 203 201 201 189 184 175 158 165 223
346 353 4 24 38 46 58 63 73 103 156 170 151 142 143 141 148 148 143 150 163 164 143 137 145 158 169 178 175 190 197 194 204 209 209 209 204 197 196 185 173 166 190
346 351 357 15 35 55 49 45 52 122 142 125 112 115 119 126 129 123 124 131 130 115 115 109 110 107 117 142 158 173 193 196 202 202 205 208 203 202 198 196 192 182 180
345 350 1 17 23 40 45 17 345 89 104 104 100 95 94 103 104 103 119 133 127 132 131 132 127 120 115 123 141 161 172 189 200 204 206 211 200 203 204 197 193 192 180
355 5 15 28 27 26 24 354 311 99 116 114 98 97 99 100 101 102 123 144 150 154 157 152 150 150 147 145 149 164 175 184 197 206 206 212 205 207 205 201 202 198 190
14 25 27 28 24 19 15 14 352 99 115 113 108 98 87 88 92 98 120 163 172 172 173 170 177 182 180 173 170 168 169 177 190 202 206 210 204 211 207 203 203 200 197
22 28 29 24 20 19 20 19 20 52 105 116 107 89 77 76 69 46 25 344 249 219 208 203 203 201 195 191 186 179 181 184 189 202 211 210 212 219 212 208 204 195 193
18 20 21 19 21 25 27 29 35 42 61 67 65 62 48 38 40 31 18 349 290 270 243 226 220 209 202 204 197 192 192 193 200 221 231 229 217 216 203 192 192 188 185
6 11 15 19 22 21 21 28 32 34 45 53 50 43 35 26 20 11 9 12 350 316 288 256 238 227 227 217 204 193 192 193 197 209 231 252 248 235 219 213 199 192 188
357 2 3 5 9 12 18 26 25 31 41 41 36 29 26 22 11 7 12 10 357 340 319 293 262 249 248 242 221 203 188 194 201 204 210 229 230 222 220 238 231 219 215
348 348 350 354 359 8 16 21 25 29 33 31 26 20 18 14 7 7 1 355 352 342 324 312 297 277 272 260 235 209 191 195 204 204 205 216 235 223 205 207 222 233 234
328 327 334 340 353 5 6 23 25 23 27 22 18 12 12 10 9 5 353 350 350 347 337 325 323 309 305 306 266 193 170 191 209 208 208 215 226 238 211 196 224 252 261
328 328 331 342 357 355 5 25 17 18 14 6 7 8 12 16 13 4 357 352 352 349 352 3 2 354 337 334 316 183 161 177 194 205 218 224 227 237 215 197 208 241 261
323 330 337 339 334 342 11 18 7 359 344 358 14 17 14 17 17 12 11 9 12 17 19 19 19 19 11 0 6 123 149 168 172 188 212 256 269 244 214 189 197 229 236
332 333 334 326 324 342 13 7 347 330 353 25 28 24 21 22 22 22 20 21 21 25 22 19 19 18 13 12 13 33 82 130 144 175 203 343 50 84 121 166 209 226 171
329 329 325 321 322 332 357 345 325 339 46 53 38 28 28 29 27 29 25 23 23 24 20 19 18 13 10 11 21 29 43 72 88 87 90 83 80 75 65 56 75 92 97
325 325 326 323 314 309 296 282 311 52 85 65 37 28 33 32 31 32 28 27 23 21 19 19 16 11 10 10 6 11 25 45 60 64 77 79 72 65 55 49 50 57 85
315 315 309 296 289 287 277 269 221 146 104 72 39 29 37 41 37 37 29 22 22 17 16 11 8 8 5 352 355 9 18 35 70 77 60 50 44 42 36 38 44 46 55
314 315 307 295 288 278 262 251 198 171 151 108 22 8 16 38 39 25 17 20 21 25 33 30 23 3 1 6 26 39 52 65 78 72 63 55 51 47 39 38 36 35 35